Regional Weather Roundup
Issued by NWS

Home | Current Version | Previous Version | Text Only | Print | Product List | Glossary On
Versions: 1 2 3 4 5 6 7 8 9 10 11 12 13 14 15 16 17 18 19 20 21 22 23 24 25 26 27 28 29 30 31 32 33 34 35 36 37 38 39 40 41 42 43 44 45 46 47 48 49 50
000
ASCA44 KEWX 220920
RWRMX

LATIN AMERICA AND CARIBBEAN REGIONAL WEATHER ROUNDUP
NATIONAL WEATHER SERVICE AUSTIN/SAN ANTONIO TX
400 AM CDT TUE JUL 22 2014

NOTE: "FAIR" INDICATED FEW OR NO CLOUDS BELOW 12,000 FEET WITH NO
SIGNIFICANT WEATHER AND/OR OBSTRUCTIONS TO VISIBILITY.

BAJA CALIFORNIA

CITY           SKY/WX    TMP DP  RH WIND       PRES   REMARKS
TIJUANA        CLEAR     66  59  77 NW8       30.05S

NORTHWESTERN MEXICO

CITY           SKY/WX    TMP DP  RH WIND       PRES   REMARKS

NORTHEASTERN MEXICO

CITY           SKY/WX    TMP DP  RH WIND       PRES   REMARKS
MONTERREY      CLEAR     79  70  73 E5        29.96S
REYNOSA        MOCLDY    79  73  83 S9        29.95S
CD. VICTORIA   CLEAR     77  72  83 SE16      29.97F

WESTERN MEXICO

CITY           SKY/WX    TMP DP  RH WIND       PRES   REMARKS
DEL BAJIO      CLEAR     66  54  63 E7        30.31
GUADALAJARA    CLEAR     63  55  77 S5        30.19F
MAZATLAN       CLEAR     75  70  83 E8        29.84S
P. VALLARTA    CLEAR     81  77  89 CALM      29.86F
ZACATECAS      CLEAR     57  45  62 SW5       30.34F

CENTRAL MEXICO

CITY           SKY/WX    TMP DP  RH WIND       PRES   REMARKS
MEXICO CITY    MOCLDY    59  50  72 CALM      30.38S
MORELIA        CLEAR     59  59 100 CALM      30.26F
QUERETARO      CLEAR     59  55  88 NE6       30.35F
S. LUIS POTOSI CLEAR     59  55  88 CALM      30.31S
TOLUCA         PTCLDY    50  46  87 CALM      30.44F

SOUTHERN MEXICO

CITY           SKY/WX    TMP DP  RH WIND       PRES   REMARKS
ACAPULCO       MOCLDY    82  77  83 N5        29.86F HX  91

YUCATAN PENINSULA

CITY           SKY/WX    TMP DP  RH WIND       PRES   REMARKS
CANCUN         PTCLDY    79  75  89 CALM      29.98F
COZUMEL        PTCLDY    73  73 100 CALM      29.98F
MERIDA         PTCLDY    75  70  83 SE8       29.96F
TAPACHULA      MOCLDY    75  72  88 CALM      29.86F
VILLAHERMOSA   CLEAR     79  72  78 NE7       29.93

CENTRAL AMERICA

CITY           SKY/WX    TMP DP  RH WIND       PRES   REMARKS

CARIBBEAN

CITY           SKY/WX    TMP DP  RH WIND       PRES   REMARKS
ARUBA          PTCLDY    81  75  83 E16       29.92R
KINGSTON       PTCLDY    82  68  61 N6        29.94S
NASSAU         MOCLDY    82  77  83 SE12      30.02F HX  91
SAN JUAN       LGT RAIN  79  73  83 E7        30.05R
SANTO DOMINGO  MOCLDY    75  73  94 NE6       30.00S
ST. CROIX      MOCLDY    81  70  69 NE8       30.04S
ST. MAARTEN    PTCLDY    81  72  74 E14       30.03S
ST. THOMAS     CLEAR     79  72  78 E6        30.04R

$$



USA.gov is the U.S. government's official web portal to all federal, state and local government web resources and services.